User: anonymous   Login
Location: Tel Aviv
(32.0670°N, 34.7670°E)
Time: 05:48:04
(UTC+03:00)
Language:

JY1SAT - Orbit

View from above orbital plane
View from above orbital plane
View from above satellite
View from above satellite

Ground track
Ground track

The orbit data is extracted from the following two-line orbital elements,

1 43803U 18099AX  23087.41685205  .00007075  00000-0  57548-3 0  9997
2 43803  97.5813 152.1010 0014581  32.5114 327.7005 14.99776948235589
Epoch (UTC): 28 March 2023 10:00:16
Eccentricity: 0.0014581
inclination: 97.5813°
perigee height: 557 km
apogee height: 578 km
right ascension of ascending node: 152.1010°
argument of perigee: 32.5114°
revolutions per day: 14.99776948
mean anomaly at epoch: 327.7005°
orbit number at epoch: 23558

The dashed part of the orbit path shows where the satellite is in the earth's shadow,  

DLR